Theta_e
299 293 289 292 292 290 291 289 288 289 294 294 292 292 294 295 296 296 297 298 299 300 303 304 304 305 310 318 320 322 324 327 327 326 325 325 326 328 328 329 330 329 329 329
292 288 293 296 296 291 291 287 285 291 292 292 288 291 293 295 296 297 297 298 298 298 301 303 303 302 302 303 305 311 317 321 325 327 325 326 326 326 327 328 328 329 329 329
286 288 294 294 293 291 288 286 286 286 289 288 285 285 288 290 292 294 295 297 296 297 297 299 302 301 300 302 303 304 305 306 311 323 324 323 324 322 323 324 325 325 326 327
288 292 292 291 290 292 287 291 290 289 286 281 284 278 283 285 287 288 290 291 293 294 294 295 297 299 299 301 303 304 305 306 308 308 319 320 322 321 322 324 325 326 326 326
283 288 289 287 289 293 289 292 290 288 285 283 282 279 282 283 285 288 288 291 292 291 291 293 295 297 300 300 301 303 304 304 305 307 307 313 316 318 319 320 320 321 322 324
286 293 291 290 292 294 293 291 290 288 284 277 281 280 280 283 285 286 289 292 293 293 294 296 298 299 299 299 299 300 302 300 303 303 304 305 306 308 309 312 314 316 317 316
286 287 291 292 289 292 291 287 279 276 276 276 279 280 281 287 287 287 288 291 293 294 295 297 298 298 298 297 297 298 299 299 299 301 301 302 304 306 307 309 311 313 313 311
280 276 287 292 290 288 288 287 281 275 274 275 280 278 282 286 289 291 292 291 292 293 295 296 298 297 297 296 297 297 297 297 298 298 299 300 301 302 303 305 309 311 309 306
282 281 289 290 291 291 286 283 289 281 276 277 277 280 285 287 287 289 290 292 293 294 295 296 297 297 297 296 296 296 296 296 296 297 297 298 299 300 300 300 302 302 302 301
286 281 287 290 291 291 288 290 282 282 273 270 274 276 279 284 285 288 289 291 292 293 295 296 296 296 296 295 295 295 295 295 295 296 296 296 296 297 298 299 298 298 299 299
290 285 285 289 286 285 286 284 285 284 280 273 270 275 282 283 285 286 290 291 293 294 296 297 296 296 295 294 294 294 294 294 294 294 295 295 295 295 295 296 296 296 297 297
291 287 279 281 287 289 288 286 285 280 277 278 277 279 285 284 285 287 289 291 292 294 296 296 296 296 296 295 294 294 294 294 294 294 294 294 294 293 293 294 294 295 295 295
289 284 278 280 285 287 284 286 286 284 283 277 274 277 286 287 288 289 288 291 292 293 293 294 294 295 295 295 295 294 294 294 294 293 293 293 293 293 292 293 293 294 294 294
292 285 281 275 280 282 282 284 287 285 281 280 279 281 283 286 287 289 289 291 291 292 293 293 293 293 294 294 294 295 294 294 293 292 292 292 292 292 292 292 292 293 293 293
288 280 281 283 284 283 283 283 284 284 285 281 283 283 286 286 288 289 290 290 290 291 292 293 293 292 292 292 292 292 293 293 293 292 291 291 291 291 291 291 291 291 292 292
285 272 278 273 281 281 279 282 284 284 285 286 285 284 287 288 288 288 290 290 290 291 292 292 292 292 292 292 292 292 292 293 293 292 291 291 290 290 290 290 290 290 290 290
281 277 272 266 277 278 272 279 282 283 285 286 282 287 288 288 289 289 289 290 291 291 291 291 292 293 292 292 292 292 293 293 292 292 291 291 290 289 289 289 288 288 288 288
279 278 272 266 267 263 277 284 285 283 285 287 288 289 289 290 292 292 292 292 291 292 291 292 292 292 292 291 291 291 291 290 290 290 289 289 288 288 288 288 288 287 287 287
284 281 275 267 266 272 278 280 280 281 280 286 287 289 290 289 288 290 293 293 294 293 294 293 293 292 290 290 289 289 288 288 288 287 287 287 287 287 286 286 286 285 285 285
282 283 278 263 266 264 276 280 284 286 277 285 287 288 287 286 282 288 292 293 293 292 292 291 290 289 288 286 287 287 286 286 286 286 286 285 286 286 286 286 285 284 284 284
273 276 275 274 271 271 280 282 286 272 277 283 285 286 284 284 288 288 289 289 289 289 289 288 287 287 286 285 285 285 285 285 285 284 283 282 283 284 284 284 282 282 282 282
271 269 269 269 272 269 282 281 279 282 284 283 283 284 285 286 287 287 288 288 287 286 286 285 284 284 283 284 284 284 283 283 281 281 280 278 277 281 281 280 279 279 281 280
271 276 273 275 275 282 282 283 285 285 284 284 284 285 285 284 285 285 285 284 285 285 285 284 283 282 281 281 282 281 281 280 278 276 274 274 276 277 278 279 278 278 279 280
277 279 277 278 281 282 283 284 284 285 285 286 285 286 286 284 285 284 285 284 284 283 283 282 281 280 280 278 278 276 278 276 275 274 273 272 274 274 275 277 277 278 278 279
278 280 276 276 281 281 285 284 285 286 285 285 285 286 287 286 285 284 284 284 283 283 280 278 279 278 277 274 271 269 272 273 273 272 272 272 273 273 273 274 275 275 275 278
279 279 278 278 282 283 283 284 285 284 285 285 284 284 284 286 287 284 284 283 283 279 276 276 274 273 272 270 269 267 264 267 271 271 271 271 272 271 273 275 275 281 281 281
Wind_Speed
2 3 6 5 3 1 3 3 4 1 0 4 5 6 7 3 3 6 7 6 7 8 5 5 5 4 5 5 6 7 7 8 6 3 3 4 6 6 7 7 10 9 9 9
3 4 4 2 2 1 1 3 2 1 2 3 1 10 8 5 6 7 8 8 9 4 3 4 5 3 3 4 2 2 4 5 6 5 3 3 3 4 4 5 8 10 10 9
4 2 5 5 2 3 1 3 3 1 1 3 1 7 5 3 3 4 8 7 5 7 7 6 5 5 2 3 3 3 2 1 3 4 2 1 0 0 2 3 4 6 9 9
2 0 7 7 3 4 3 4 4 6 4 3 2 6 5 2 7 6 9 7 8 8 6 6 6 4 3 2 2 2 2 3 3 2 3 4 5 5 3 3 3 4 6 7
4 4 5 4 5 4 3 2 4 3 4 2 2 2 8 2 5 7 1 3 5 7 6 6 5 5 3 3 3 3 3 3 3 2 1 3 4 3 2 2 4 4 3 4
1 1 1 2 5 6 5 4 6 4 2 1 4 5 6 4 5 1 2 3 3 3 4 5 4 4 4 3 4 3 4 4 5 4 3 1 3 3 3 2 3 2 2 1
2 1 2 1 7 5 2 2 3 4 3 4 4 1 7 8 6 5 3 2 2 2 3 5 5 4 4 4 4 3 4 4 4 4 4 4 3 3 4 3 3 2 1 1
4 2 4 2 3 9 4 4 3 4 2 4 2 7 6 5 2 4 5 5 5 5 3 4 5 4 4 4 3 3 4 4 4 4 3 3 4 3 2 2 1 1 2 2
2 1 3 1 1 6 6 7 11 4 1 2 4 7 10 7 6 1 4 5 6 5 5 5 5 4 3 3 3 3 3 3 3 4 3 4 4 4 3 4 4 3 4 3
3 2 3 3 1 4 3 7 4 1 4 4 4 4 7 8 2 1 4 6 5 4 5 4 4 4 2 1 2 2 2 2 1 3 3 2 3 3 3 3 4 4 4 4
2 1 1 3 2 5 2 4 3 4 3 5 1 6 7 8 6 6 6 6 5 5 6 6 5 4 3 1 1 1 1 2 2 1 0 2 3 3 3 4 3 3 3 4
2 2 3 1 0 2 1 6 5 6 5 2 1 10 4 7 7 6 7 5 4 5 5 4 4 4 3 2 2 2 1 2 3 2 1 2 2 3 3 3 3 3 4 4
4 2 2 2 3 4 2 3 3 4 4 6 5 8 1 5 7 6 6 6 5 5 5 4 3 4 4 4 3 3 4 4 3 2 2 2 2 3 3 3 3 4 4 4
2 4 3 1 1 3 1 3 2 3 4 6 10 11 8 7 6 7 6 4 4 5 5 5 5 5 5 5 5 4 4 4 4 4 4 4 4 4 4 3 3 4 3 4
2 3 1 2 3 4 5 5 5 8 14 9 20 14 13 8 5 6 6 4 5 6 7 6 5 5 5 5 4 3 3 3 4 4 3 4 3 3 3 3 3 4 4 3
1 3 1 4 5 5 6 9 8 11 10 14 18 23 7 8 7 5 7 6 8 10 9 8 7 6 6 6 5 3 2 1 2 2 2 2 3 4 4 4 4 4 4 4
1 4 3 5 4 3 6 8 13 8 8 10 12 23 5 8 8 8 8 8 11 12 9 8 9 7 6 7 5 4 3 2 2 3 3 1 3 4 4 4 5 4 4 3
4 2 3 4 4 0 9 5 7 10 12 7 12 19 6 10 12 8 8 10 13 11 8 10 9 6 4 4 4 5 3 3 5 4 2 2 2 3 4 4 4 4 3 4
8 4 2 3 3 7 9 7 6 7 11 7 17 17 15 7 1 10 14 14 15 14 13 11 7 6 5 6 6 6 5 5 4 1 1 1 2 4 5 5 5 3 3 3
3 5 6 2 5 8 8 2 4 5 5 9 10 13 7 5 3 14 9 9 13 10 5 7 7 5 7 6 6 7 5 4 3 1 1 1 1 3 5 5 5 3 3 3
4 3 13 12 8 7 12 7 3 3 9 2 1 5 2 5 8 5 7 4 3 2 6 5 6 7 7 6 6 6 6 5 3 1 1 2 2 2 3 4 3 4 4 5
8 8 6 3 4 12 8 2 8 8 6 2 3 2 6 8 10 10 8 7 5 3 4 5 7 7 6 6 6 6 6 4 3 3 3 4 3 3 3 5 3 4 6 6
4 9 7 11 10 6 7 8 5 2 5 7 4 5 5 7 7 7 6 4 2 4 6 5 7 7 4 4 3 5 4 5 4 4 4 3 4 4 3 4 4 4 5 6
5 4 4 4 13 10 8 7 7 6 9 8 7 8 5 7 6 7 4 1 2 3 4 3 6 5 6 5 4 3 6 5 5 5 4 3 4 4 4 3 3 3 4 5
6 8 6 5 14 2 12 9 11 11 7 8 7 6 7 5 2 2 5 3 4 5 3 4 6 6 6 6 4 3 5 6 5 5 4 4 3 4 4 3 3 4 1 4
6 8 6 10 5 7 10 5 3 6 7 8 6 4 4 4 2 2 7 6 4 5 2 3 3 3 4 5 6 5 3 3 6 5 4 4 4 3 4 5 4 9 8 8
Wind_Direction
120 143 203 207 148 14 149 143 154 204 16 152 207 270 258 247 292 267 253 247 246 242 250 234 227 234 214 212 204 208 200 206 175 170 185 216 228 227 231 228 229 221 225 220
61 222 191 136 206 42 118 138 163 37 11 134 94 267 260 245 239 224 236 246 240 246 238 229 191 125 103 125 113 193 220 203 203 197 184 189 184 208 211 210 219 221 220 221
155 235 155 130 142 176 268 168 171 132 105 49 311 287 252 258 252 265 252 250 266 239 240 243 217 203 147 118 73 59 52 9 246 219 176 165 133 232 205 214 231 226 218 221
212 53 128 105 183 170 211 209 147 133 121 218 335 269 290 289 283 246 263 248 247 243 239 249 241 212 156 121 75 53 34 45 49 6 217 208 224 229 219 209 214 225 215 221
236 159 146 150 194 153 273 124 110 92 94 93 321 78 272 342 288 271 300 282 275 252 220 226 222 161 97 82 62 39 71 67 45 48 159 223 244 262 284 259 254 245 242 230
249 296 259 192 89 130 174 77 55 53 86 338 239 166 266 205 204 32 13 350 2 84 118 114 99 114 113 92 80 64 63 43 24 28 27 13 261 270 266 273 261 249 215 168
6 316 310 146 89 70 33 41 10 353 7 232 326 232 254 264 238 221 230 288 158 128 128 130 131 127 112 98 81 85 77 68 36 45 41 25 357 300 269 280 279 261 167 82
148 297 194 186 204 152 176 147 196 228 239 296 354 244 249 248 260 264 276 229 173 177 181 157 144 136 128 123 113 104 92 85 53 51 47 42 33 25 21 349 332 60 110 105
163 227 332 38 250 131 169 167 189 193 6 7 253 291 287 290 301 205 202 175 185 189 185 175 150 144 159 153 123 101 85 75 62 46 38 42 38 48 48 50 61 78 88 99
162 184 338 317 195 35 133 151 99 353 167 237 277 272 250 304 268 273 234 211 196 168 168 172 167 176 184 141 105 92 77 73 56 72 57 65 58 54 62 76 88 101 106 102
113 266 271 51 294 169 110 128 153 158 157 189 241 257 222 262 300 299 242 213 209 186 188 185 177 167 155 129 123 88 54 34 1 37 85 77 64 66 68 74 66 72 77 90
154 191 176 165 5 59 248 181 172 186 214 224 237 262 255 259 282 261 254 224 218 204 191 178 172 162 162 177 198 221 218 225 222 194 144 95 82 73 84 92 93 99 102 90
12 251 118 46 339 355 191 212 164 90 77 210 167 256 275 298 322 313 242 215 203 193 186 185 177 189 200 215 215 215 218 230 227 187 172 149 139 133 135 135 130 120 119 112
67 14 24 186 48 346 286 27 248 165 211 224 237 265 310 323 318 319 310 283 229 223 206 188 191 210 220 219 211 202 214 206 197 190 191 194 200 192 176 158 144 133 130 125
128 210 348 263 226 212 220 227 248 226 231 208 255 261 260 253 269 266 236 243 256 250 238 225 206 213 232 235 223 218 223 192 181 179 193 229 208 177 156 153 145 123 112 108
77 210 94 304 301 229 257 261 237 230 241 243 257 269 181 241 241 252 243 219 230 239 234 229 229 229 239 227 217 230 195 94 119 141 181 208 177 168 180 168 153 136 124 119
98 122 79 286 347 10 313 228 218 220 217 212 241 247 181 230 228 236 234 216 234 239 227 217 228 229 223 209 203 197 143 124 108 71 40 302 197 191 188 166 152 150 148 137
169 141 129 240 17 228 240 205 195 214 256 234 264 266 221 237 237 245 234 216 232 239 220 218 229 231 227 176 135 128 117 98 66 46 357 312 213 203 178 168 171 149 147 157
186 156 283 195 215 305 308 260 176 174 270 222 231 260 261 248 185 258 237 231 231 223 226 219 203 199 171 155 145 133 109 89 91 136 246 287 210 197 181 184 174 158 147 148
177 197 188 128 220 222 241 336 210 150 269 250 195 241 289 127 212 258 268 223 235 231 212 182 170 149 142 156 144 126 128 133 176 224 285 305 206 190 187 178 161 143 140 137
136 179 219 235 243 284 247 209 201 131 242 67 183 271 169 204 218 278 345 345 315 265 214 159 146 151 157 150 136 142 155 183 178 193 86 55 49 139 155 139 127 139 127 120
161 161 200 184 206 264 179 119 189 226 290 48 321 279 264 242 274 277 283 279 310 68 78 115 126 139 154 149 144 157 183 161 144 132 96 76 65 82 107 123 108 111 118 119
246 187 183 182 208 232 203 208 235 235 252 275 264 272 264 275 268 304 294 295 214 161 133 127 135 141 160 169 176 163 175 153 140 124 127 119 92 87 107 127 131 123 130 147
251 156 217 96 254 232 233 253 257 267 253 258 235 245 251 251 301 298 296 292 150 161 152 135 137 157 184 194 197 189 163 155 149 144 147 129 119 108 84 93 115 136 145 152
192 150 185 246 263 338 264 226 240 244 255 271 269 232 240 235 122 284 299 252 197 191 188 174 183 189 200 183 181 193 176 154 146 136 140 125 123 121 106 92 133 129 171 168
187 185 194 241 212 200 252 232 228 240 247 255 251 222 213 224 335 43 263 231 212 209 208 207 208 203 212 180 192 194 207 168 143 141 151 159 147 138 133 123 104 97 110 123